Content
SEND FEEDBACK

Daily
Averages
Monthly
Summary
Netherlands

AMSTERDAM, NETHERLANDS


Home > Europe > Netherlands
Elevation: 7 feet     Latitude: 52 18N     Longitude: 004 46E

WEATHER
 
SELECT A DAY
Number of Records: 302,132;   Date Range: 7/1/96 - 7/28/14
 
SHARE

PRINT THIS DATA

[ ← Previous Day ]
WEATHER ALMANAC - JULY 21, 2013
[ Next Day → ]
[ °C ]   °F
Weather ElementAverageHighLow
Temperature74 °F86 °F (5:55 pm)60 °F (5:00 am)
Dewpoint60 °F64.4 °F (10:55 pm)56 °F (8:00 pm)
Humidity63.8 %94 % (1:55 am)29 % (5:00 pm)
Barometer30.10 in30.18 in (2:00 am)30.04 in (7:25 pm)
Wind Speed8.1 mph11.5 mph (2:25 pm)
Weather ElementAverage
Visibility16.6 mi
Wind DirectionENE (62.2 °)

Weather ElementTotal
Precipitation---
Cooling Degree Days8 (Base 65)
Growing Degree Days23 (Base 50)
Averaged from 55 records on July 21, 2013
WEATHER CONDITIONS BREAKOUT
WIND DIRECTION BREAKOUT
WEATHER BY HOUR - JULY 21, 2013
[ °C ]   °F
Local TimeTemperatureDewpointHumidityBarometerVisibilityWind DirectionWind SpeedGust SpeedPrecipitationEventsConditions
12:55 AM66.2 °F62.6 °F88 %30.15 in6.2 miNE (50°)10.4 mphPartly Cloudy
1:25 AM66.2 °F62.6 °F88 %30.15 inNE (50°)10.4 mphClear
1:55 AM64.4 °F62.6 °F94 %30.15 inNE (50°)10.4 mphClear
2:00 AM65.0 °F62.0 °F86 %30.18 in9.0 miENE (60°)8.9 mphPartly Cloudy
2:25 AM64.4 °F60.8 °F88 %30.15 inENE (60°)10.4 mphClear
2:55 AM64.4 °F60.8 °F88 %30.15 inNE (50°)8.1 mphClear
3:25 AM62.6 °F60.8 °F94 %30.15 inENE (60°)8.1 mphClear
3:55 AM62.6 °F59.0 °F88 %30.15 inENE (60°)6.9 mphClear
4:25 AM60.8 °F59.0 °F94 %30.15 inENE (60°)5.8 mphClear
4:55 AM60.8 °F59.0 °F94 %30.15 inENE (60°)5.8 mphClear
5:00 AM60.0 °F58.0 °F92 %30.16 in12.0 miENE (60°)6.7 mph
5:25 AM60.8 °F59.0 °F94 %30.12 inNE (50°)6.9 mphClear
5:55 AM62.6 °F59.0 °F88 %30.12 inENE (60°)9.2 mphClear
6:25 AM62.6 °F59.0 °F88 %30.12 inENE (60°)9.2 mphClear
6:55 AM62.6 °F59.0 °F88 %30.12 inENE (60°)8.1 mphClear
7:25 AM64.4 °F59.0 °F83 %30.12 inENE (60°)6.9 mphClear
7:55 AM68.0 °F60.8 °F78 %30.12 inENE (70°)6.9 mphClear
8:00 AM67.0 °F60.0 °F73 %30.15 in14.0 miENE (70°)6.7 mphPartly Cloudy
8:25 AM68.0 °F60.8 °F78 %30.12 inENE (70°)8.1 mphClear
8:55 AM69.8 °F60.8 °F73 %30.12 inEast (80°)6.9 mphClear
9:25 AM71.6 °F60.8 °F69 %30.12 inEast (90°)8.1 mphClear
9:55 AM75.2 °F60.8 °F61 %30.12 inEast (90°)8.1 mphClear
10:25 AM75.2 °F60.8 °F61 %30.12 inEast (100°)8.1 mphClear
10:55 AM77.0 °F60.8 °F57 %30.12 inEast (100°)6.9 mphClear
11:00 AM77.0 °F61.0 °F47 %30.14 in17.0 miESE (120°)8.9 mph
11:25 AM77.0 °F60.8 °F57 %30.12 inENE (70°)8.1 mphClear
11:55 AM78.8 °F62.6 °F57 %30.12 inENE (70°)9.2 mphClear
12:25 PM78.8 °F60.8 °F54 %30.12 inENE (70°)8.1 mphClear
12:55 PM80.6 °F60.8 °F51 %30.12 inENE (70°)10.4 mphClear
1:25 PM82.4 °F60.8 °F48 %30.12 inEast (80°)10.4 mphClear
1:55 PM82.4 °F62.6 °F51 %30.09 inENE (60°)9.2 mphClear
2:00 PM82.0 °F61.0 °F39 %30.12 in19.0 miENE (60°)11.2 mphPartly Cloudy
2:25 PM82.4 °F59.0 °F45 %30.09 inENE (70°)11.5 mphClear
2:55 PM82.4 °F60.8 °F48 %30.09 inENE (60°)9.2 mphClear
3:25 PM84.2 °F59.0 °F42 %30.09 inENE (60°)5.8 mphClear
3:55 PM84.2 °F57.2 °F40 %30.09 inENE (60°)6.9 mphClear
4:25 PM84.2 °F59.0 °F42 %30.06 inENE (70°)6.9 mphClear
4:55 PM84.2 °F57.2 °F40 %30.06 inENE (60°)8.1 mphClear
5:00 PM84.0 °F57.0 °F29 %30.09 in22.0 miENE (60°)6.7 mph
5:25 PM84.2 °F57.2 °F40 %30.06 inENE (60°)5.8 mphClear
5:55 PM86.0 °F59.0 °F40 %30.06 inENE (60°)4.6 mphClear
6:25 PM84.2 °F57.2 °F40 %30.06 inNE (50°)6.9 mphClear
6:55 PM84.2 °F59.0 °F42 %30.06 inENE (60°)5.8 mphClear
7:25 PM82.4 °F57.2 °F42 %30.04 inNE (50°)9.2 mphClear
7:55 PM82.4 °F57.2 °F42 %30.06 inNE (50°)8.1 mphClear
8:00 PM81.0 °F56.0 °F33 %30.06 in25.0 miNE (50°)8.9 mphPartly Cloudy
8:25 PM80.6 °F57.2 °F45 %30.04 inNE (50°)6.9 mphClear
8:55 PM77.0 °F57.2 °F50 %30.04 inNE (50°)5.8 mphClear
9:25 PM77.0 °F59.0 °F54 %30.04 inNE (40°)9.2 mphClear
9:55 PM77.0 °F59.0 °F54 %30.04 inNE (40°)9.2 mphClear
10:25 PM75.2 °F62.6 °F65 %30.04 inNE (40°)9.2 mphClear
10:55 PM73.4 °F64.4 °F73 %30.06 inNE (50°)8.1 mphClear
11:00 PM74.0 °F64.0 °F64 %30.07 in25.0 miNE (50°)8.9 mph
11:25 PM73.4 °F64.4 °F73 %30.06 inNE (50°)8.1 mphClear
11:55 PM71.6 °F64.4 °F78 %30.06 inNE (50°)6.9 mphClear
Hourly data recorded from EHAM, located miles away from Amsterdam, Netherlands







STORIES FROM OUR PARTNERS